| time (UTC) | temp C | wind direction | speed KPH | gust KPH | rain 1hr cm | rain 24hr cm | rain mn cm | humidity % | barometer mb |
| 20260906131445 | 22 | 180 | 0.0 | 3.2 | 0.00 | 0.00 | 0.00 | 90 | 1018.2 |
| 20260906130941 | 22 | 340 | 0.0 | 3.2 | 0.00 | 0.00 | 0.00 | 91 | 1018.5 |
| 20260906130440 | 22 | 8 | 0.0 | 3.2 | 0.00 | 0.00 | 0.00 | 91 | 1018.6 |
| 20260906125935 | 22 | 353 | 0.0 | 1.6 | 0.00 | 0.00 | 0.00 | 91 | 1018.6 |
| 20260906125432 | 22 | 165 | 0.0 | 0.0 | 0.00 | 0.00 | 0.00 | 91 | 1018.6 |
| 20260906124931 | 22 | 270 | 0.0 | 0.0 | 0.00 | 0.00 | 0.00 | 92 | 1018.4 |
| 20260906124428 | 22 | 203 | 0.0 | 1.6 | 0.00 | 0.00 | 0.00 | 92 | 1018.2 |
| 20260906123927 | 22 | 337 | 1.6 | 4.8 | 0.00 | 0.00 | 0.00 | 92 | 1018.2 |
| 20260906123427 | 22 | 246 | 0.0 | 3.2 | 0.00 | 0.00 | 0.00 | 92 | 1017.7 |
| 20260906122922 | 22 | 240 | 3.2 | 3.2 | 0.00 | 0.00 | 0.00 | 92 | 1017.6 |
| 20260906122422 | 21 | 275 | 0.0 | 3.2 | 0.00 | 0.00 | 0.00 | 92 | 1017.7 |
| 20260906121919 | 21 | 221 | 3.2 | 3.2 | 0.00 | 0.00 | 0.00 | 92 | 1017.5 |
| 20260906121415 | 21 | 285 | 0.0 | 1.6 | 0.00 | 0.00 | 0.00 | 92 | 1017.6 |
| 20260906120911 | 21 | 352 | 0.0 | 3.2 | 0.00 | 0.00 | 0.00 | 93 | 1017.4 |
| 20260906120406 | 21 | 270 | 0.0 | 3.2 | 0.00 | 0.00 | 0.00 | 93 | 1017.5 |
| 20260906115902 | 21 | 311 | 3.2 | 3.2 | 0.00 | 0.00 | 0.00 | 93 | 1017.5 |
| 20260906115358 | 21 | 0 | 0.0 | 3.2 | 0.00 | 0.00 | 0.00 | 93 | 1017.4 |
| 20260906114856 | 21 | 123 | 0.0 | 3.2 | 0.00 | 0.00 | 0.00 | 93 | 1017.6 |
| 20260906114352 | 21 | 340 | 0.0 | 4.8 | 0.00 | 0.00 | 0.00 | 93 | 1017.3 |
| 20260906113847 | 21 | 279 | 0.0 | 3.2 | 0.00 | 0.00 | 0.00 | 93 | 1017.4 |
| 20260906113346 | 21 | 263 | 1.6 | 4.8 | 0.00 | 0.00 | 0.00 | 93 | 1017.0 |
| 20260906112841 | 21 | 286 | 3.2 | 3.2 | 0.00 | 0.00 | 0.00 | 93 | 1016.9 |
| 20260906112337 | 21 | 243 | 0.0 | 4.8 | 0.00 | 0.00 | 0.00 | 93 | 1016.5 |
| 20260906111832 | 21 | 0 | 0.0 | 4.8 | 0.00 | 0.00 | 0.00 | 93 | 1016.7 |
| 20260906111331 | 21 | 7 | 0.0 | 3.2 | 0.00 | 0.00 | 0.00 | 93 | 1016.5 |
| 20260906110827 | 21 | 340 | 0.0 | 3.2 | 0.00 | 0.00 | 0.00 | 93 | 1016.5 |
| 20260906110323 | 21 | 270 | 0.0 | 1.6 | 0.00 | 0.00 | 0.00 | 93 | 1016.4 |
| 20260906105821 | 21 | 246 | 1.6 | 3.2 | 0.00 | 0.00 | 0.00 | 92 | 1016.3 |
| 20260906105317 | 21 | 124 | 0.0 | 3.2 | 0.00 | 0.00 | 0.00 | 92 | 1016.2 |
| 20260906104813 | 21 | 355 | 0.0 | 3.2 | 0.00 | 0.00 | 0.00 | 92 | 1016.3 |
| 20260906104311 | 21 | 257 | 0.0 | 3.2 | 0.00 | 0.00 | 0.00 | 92 | 1016.1 |
| 20260906103804 | 21 | 339 | 0.0 | 6.4 | 0.00 | 0.00 | 0.00 | 92 | 1016.0 |
| 20260906103303 | 21 | 225 | 0.0 | 3.2 | 0.00 | 0.00 | 0.00 | 92 | 1016.2 |
| 20260906102759 | 21 | 0 | 0.0 | 3.2 | 0.00 | 0.00 | 0.00 | 92 | 1016.1 |
| 20260906102258 | 21 | 3 | 0.0 | 3.2 | 0.00 | 0.00 | 0.00 | 92 | 1016.0 |
| 20260906101754 | 21 | 173 | 0.0 | 3.2 | 0.00 | 0.00 | 0.00 | 91 | 1015.9 |
| 20260906101248 | 21 | 334 | 0.0 | 3.2 | 0.00 | 0.00 | 0.00 | 91 | 1016.2 |
| 20260906100744 | 21 | 294 | 1.6 | 4.8 | 0.00 | 0.00 | 0.00 | 91 | 1016.1 |
| 20260906100243 | 21 | 355 | 1.6 | 4.8 | 0.00 | 0.00 | 0.00 | 91 | 1016.0 |
| 20260906095738 | 21 | 262 | 0.0 | 6.4 | 0.00 | 0.00 | 0.00 | 91 | 1016.0 |
| 20260906095233 | 21 | 78 | 3.2 | 3.2 | 0.00 | 0.00 | 0.00 | 91 | 1016.1 |
| 20260906094732 | 21 | 0 | 3.2 | 3.2 | 0.00 | 0.00 | 0.00 | 91 | 1016.0 |
| 20260906094228 | 21 | 265 | 3.2 | 4.8 | 0.00 | 0.00 | 0.00 | 91 | 1015.9 |
| 20260906093724 | 21 | 319 | 0.0 | 3.2 | 0.00 | 0.00 | 0.00 | 91 | 1015.9 |
| 20260906093220 | 21 | 150 | 0.0 | 3.2 | 0.00 | 0.00 | 0.00 | 91 | 1015.7 |
| 20260906092715 | 21 | 325 | 1.6 | 4.8 | 0.00 | 0.00 | 0.00 | 91 | 1016.0 |
| 20260906092214 | 21 | 8 | 0.0 | 3.2 | 0.00 | 0.00 | 0.00 | 91 | 1015.8 |
| 20260906091711 | 21 | 345 | 0.0 | 3.2 | 0.00 | 0.00 | 0.00 | 91 | 1015.6 |
| 20260906091207 | 21 | 324 | 3.2 | 3.2 | 0.00 | 0.00 | 0.00 | 91 | 1015.5 |
| 20260906090703 | 21 | 0 | 3.2 | 8.0 | 0.00 | 0.00 | 0.00 | 91 | 1015.9 |
| 20260906090202 | 21 | 74 | 0.0 | 3.2 | 0.00 | 0.00 | 0.00 | 91 | 1015.6 |
| 20260906085701 | 21 | 172 | 0.0 | 1.6 | 0.00 | 0.00 | 0.00 | 91 | 1015.8 |
| 20260906085200 | 21 | 0 | 0.0 | 4.8 | 0.00 | 0.00 | 0.00 | 91 | 1016.0 |
| 20260906084655 | 21 | 331 | 0.0 | 3.2 | 0.00 | 0.00 | 0.00 | 91 | 1016.3 |
| 20260906084154 | 21 | 203 | 0.0 | 1.6 | 0.00 | 0.00 | 0.00 | 91 | 1016.2 |
| 20260906083649 | 21 | 285 | 0.0 | 3.2 | 0.00 | 0.00 | 0.00 | 90 | 1016.4 |
| 20260906083145 | 21 | 282 | 0.0 | 0.0 | 0.00 | 0.00 | 0.00 | 90 | 1016.4 |
| 20260906082640 | 21 | 203 | 0.0 | 3.2 | 0.00 | 0.00 | 0.00 | 90 | 1016.3 |
| 20260906082136 | 21 | 90 | 0.0 | 4.8 | 0.00 | 0.00 | 0.00 | 90 | 1016.4 |
| 20260906081632 | 21 | 170 | 0.0 | 3.2 | 0.00 | 0.00 | 0.00 | 90 | 1016.1 |
| 20260906081126 | 21 | 243 | 0.0 | 4.8 | 0.00 | 0.00 | 0.00 | 91 | 1016.3 |
| 20260906080623 | 21 | 206 | 0.0 | 4.8 | 0.00 | 0.00 | 0.00 | 91 | 1016.0 |
| 20260906080119 | 21 | 239 | 3.2 | 3.2 | 0.00 | 0.00 | 0.00 | 91 | 1015.8 |
| 20260906075618 | 21 | 169 | 3.2 | 3.2 | 0.00 | 0.00 | 0.00 | 91 | 1016.1 |
| 20260906075113 | 21 | 278 | 0.0 | 4.8 | 0.00 | 0.00 | 0.00 | 91 | 1016.1 |
| 20260906074608 | 21 | 339 | 0.0 | 4.8 | 0.00 | 0.00 | 0.00 | 91 | 1016.3 |
| 20260906074101 | 21 | 294 | 0.0 | 3.2 | 0.00 | 0.00 | 0.00 | 91 | 1016.2 |
| 20260906073557 | 21 | 344 | 0.0 | 4.8 | 0.00 | 0.00 | 0.00 | 91 | 1016.2 |
| 20260906073052 | 21 | 208 | 4.8 | 8.0 | 0.00 | 0.00 | 0.00 | 91 | 1016.4 |
| 20260906072547 | 21 | 33 | 3.2 | 4.8 | 0.00 | 0.00 | 0.00 | 91 | 1016.2 |
| 20260906072043 | 21 | 0 | 0.0 | 3.2 | 0.00 | 0.00 | 0.00 | 91 | 1016.3 |
| 20260906071539 | 21 | 356 | 0.0 | 4.8 | 0.00 | 0.00 | 0.00 | 91 | 1016.4 |
| 20260906071034 | 21 | 233 | 0.0 | 3.2 | 0.00 | 0.00 | 0.00 | 91 | 1016.4 |
| 20260906070530 | 21 | 0 | 0.0 | 3.2 | 0.00 | 0.00 | 0.00 | 92 | 1016.3 |
| 20260906070026 | 21 | 352 | 0.0 | 3.2 | 0.00 | 0.00 | 0.00 | 91 | 1016.3 |
| 20260906065525 | 21 | 168 | 0.0 | 1.6 | 0.00 | 0.00 | 0.00 | 92 | 1016.5 |
| 20260906065021 | 21 | 11 | 0.0 | 3.2 | 0.00 | 0.00 | 0.00 | 92 | 1016.5 |
| 20260906064516 | 21 | 148 | 0.0 | 6.4 | 0.00 | 0.00 | 0.00 | 92 | 1016.5 |
| 20260906064011 | 21 | 0 | 0.0 | 3.2 | 0.00 | 0.00 | 0.00 | 92 | 1016.3 |
| 20260906063507 | 21 | 270 | 0.0 | 1.6 | 0.00 | 0.00 | 0.00 | 92 | 1016.5 |
| 20260906063002 | 21 | 168 | 0.0 | 3.2 | 0.00 | 0.00 | 0.00 | 91 | 1016.3 |
| 20260906062456 | 21 | 206 | 0.0 | 3.2 | 0.00 | 0.00 | 0.00 | 91 | 1016.7 |
| 20260906061951 | 21 | 0 | 0.0 | 4.8 | 0.00 | 0.00 | 0.00 | 91 | 1016.3 |
| 20260906061448 | 21 | 68 | 3.2 | 4.8 | 0.00 | 0.00 | 0.00 | 92 | 1016.5 |
| 20260906060941 | 21 | 188 | 0.0 | 1.6 | 0.00 | 0.00 | 0.00 | 92 | 1016.5 |
| 20260906060439 | 21 | 339 | 3.2 | 6.4 | 0.00 | 0.00 | 0.00 | 92 | 1016.5 |
| 20260906055935 | 21 | 345 | 1.6 | 4.8 | 0.00 | 0.00 | 0.00 | 92 | 1016.3 |
| 20260906055431 | 21 | 319 | 3.2 | 6.4 | 0.00 | 0.00 | 0.00 | 92 | 1016.5 |
| 20260906054926 | 21 | 270 | 0.0 | 4.8 | 0.00 | 0.00 | 0.00 | 92 | 1016.4 |
| 20260906054420 | 21 | 294 | 1.6 | 4.8 | 0.00 | 0.00 | 0.00 | 92 | 1016.5 |
| 20260906053916 | 21 | 301 | 0.0 | 4.8 | 0.00 | 0.00 | 0.00 | 93 | 1016.4 |
| 20260906053412 | 21 | 0 | 0.0 | 3.2 | 0.00 | 0.00 | 0.00 | 93 | 1016.4 |
| 20260906052908 | 21 | 243 | 0.0 | 1.6 | 0.00 | 0.00 | 0.00 | 93 | 1016.3 |
| 20260906052404 | 21 | 0 | 0.0 | 1.6 | 0.00 | 0.00 | 0.00 | 92 | 1016.3 |
| 20260906051901 | 21 | 262 | 0.0 | 1.6 | 0.00 | 0.00 | 0.00 | 92 | 1016.3 |
| 20260906051400 | 21 | 337 | 0.0 | 0.0 | 0.00 | 0.00 | 0.00 | 92 | 1016.3 |
| 20260906050856 | 21 | 352 | 0.0 | 3.2 | 0.00 | 0.00 | 0.00 | 92 | 1015.9 |
| 20260906050351 | 21 | 325 | 0.0 | 3.2 | 0.00 | 0.00 | 0.00 | 92 | 1016.1 |
| 20260906045850 | 21 | 286 | 0.0 | 1.6 | 0.00 | 0.00 | 0.00 | 91 | 1015.9 |
| 20260906045349 | 22 | 262 | 1.6 | 3.2 | 0.00 | 0.00 | 0.00 | 91 | 1016.0 |
| 20260906044846 | 22 | 270 | 0.0 | 3.2 | 0.00 | 0.00 | 0.00 | 91 | 1015.9 |
| 20260906044346 | 22 | 14 | 1.6 | 6.4 | 0.00 | 0.00 | 0.00 | 91 | 1015.7 |
| 20260906043841 | 22 | 254 | 0.0 | 1.6 | 0.00 | 0.00 | 0.00 | 91 | 1015.6 |
| 20260906043337 | 22 | 331 | 1.6 | 3.2 | 0.00 | 0.00 | 0.00 | 92 | 1015.4 |
| 20260906042832 | 22 | 48 | 0.0 | 3.2 | 0.00 | 0.00 | 0.00 | 92 | 1015.5 |
| 20260906042331 | 22 | 240 | 1.6 | 1.6 | 0.00 | 0.00 | 0.00 | 92 | 1015.3 |
| 20260906041827 | 22 | 262 | 0.0 | 3.2 | 0.00 | 0.00 | 0.00 | 92 | 1015.4 |
| 20260906041322 | 22 | 345 | 0.0 | 0.0 | 0.00 | 0.00 | 0.00 | 92 | 1015.3 |
| 20260906040823 | 22 | 345 | 0.0 | 0.0 | 0.00 | 0.00 | 0.00 | 91 | 1015.5 |
| 20260906040318 | 22 | 345 | 0.0 | 1.6 | 0.00 | 0.00 | 0.00 | 91 | 1015.5 |
| 20260906035813 | 22 | 279 | 0.0 | 0.0 | 0.00 | 0.00 | 0.00 | 90 | 1015.4 |
| 20260906035308 | 22 | 349 | 0.0 | 0.0 | 0.00 | 0.00 | 0.00 | 90 | 1015.5 |
| 20260906034803 | 23 | 349 | 0.0 | 0.0 | 0.00 | 0.00 | 0.00 | 89 | 1015.3 |
| 20260906034258 | 23 | 270 | 0.0 | 1.6 | 0.00 | 0.00 | 0.00 | 89 | 1015.3 |
| 20260906033754 | 23 | 0 | 0.0 | 3.2 | 0.00 | 0.00 | 0.00 | 89 | 1015.3 |
| 20260906033253 | 23 | 303 | 3.2 | 3.2 | 0.00 | 0.00 | 0.00 | 88 | 1015.4 |
| 20260906032750 | 23 | 352 | 3.2 | 3.2 | 0.00 | 0.00 | 0.00 | 88 | 1015.2 |
| 20260906032250 | 23 | 331 | 0.0 | 4.8 | 0.00 | 0.00 | 0.00 | 88 | 1014.9 |
| 20260906031745 | 23 | 286 | 0.0 | 3.2 | 0.00 | 0.00 | 0.00 | 88 | 1014.8 |
| 20260906031241 | 23 | 336 | 0.0 | 3.2 | 0.00 | 0.00 | 0.00 | 88 | 1015.0 |
| 20260906030740 | 23 | 233 | 0.0 | 3.2 | 0.00 | 0.00 | 0.00 | 88 | 1014.9 |
| 20260906030236 | 23 | 270 | 0.0 | 3.2 | 0.00 | 0.00 | 0.00 | 87 | 1015.0 |
| 20260906025735 | 24 | 246 | 1.6 | 6.4 | 0.00 | 0.00 | 0.00 | 87 | 1014.9 |
| 20260906025229 | 24 | 294 | 3.2 | 3.2 | 0.00 | 0.00 | 0.00 | 87 | 1015.2 |
| 20260906024728 | 24 | 348 | 0.0 | 3.2 | 0.00 | 0.00 | 0.00 | 86 | 1014.7 |
| 20260906024228 | 24 | 279 | 0.0 | 6.4 | 0.00 | 0.00 | 0.00 | 86 | 1015.1 |
| 20260906023724 | 24 | 14 | 0.0 | 4.8 | 0.00 | 0.00 | 0.00 | 86 | 1015.0 |
| 20260906023219 | 25 | 270 | 1.6 | 3.2 | 0.00 | 0.00 | 0.00 | 85 | 1014.9 |
| 20260906022714 | 25 | 203 | 0.0 | 3.2 | 0.00 | 0.00 | 0.00 | 85 | 1015.0 |
| 20260906022209 | 25 | 325 | 0.0 | 3.2 | 0.00 | 0.00 | 0.00 | 85 | 1014.8 |
| 20260906021705 | 25 | 152 | 0.0 | 4.8 | 0.00 | 0.00 | 0.00 | 84 | 1015.0 |
| 20260906021204 | 25 | 45 | 0.0 | 3.2 | 0.00 | 0.00 | 0.00 | 84 | 1014.6 |
| 20260906020659 | 25 | 287 | 0.0 | 3.2 | 0.00 | 0.00 | 0.00 | 84 | 1015.3 |
| 20260906020154 | 25 | 148 | 0.0 | 4.8 | 0.00 | 0.00 | 0.00 | 83 | 1014.8 |
| 20260906015648 | 25 | 228 | 0.0 | 4.8 | 0.00 | 0.00 | 0.00 | 83 | 1014.6 |
| 20260906015146 | 26 | 247 | 4.8 | 4.8 | 0.00 | 0.00 | 0.00 | 83 | 1014.5 |
| 20260906014641 | 26 | 10 | 0.0 | 4.8 | 0.00 | 0.00 | 0.00 | 82 | 1014.5 |
| 20260906014137 | 26 | 188 | 4.8 | 4.8 | 0.00 | 0.00 | 0.00 | 82 | 1014.5 |
| 20260906013633 | 26 | 148 | 0.0 | 6.4 | 0.00 | 0.00 | 0.00 | 82 | 1014.5 |
| 20260906013128 | 26 | 152 | 3.2 | 4.8 | 0.00 | 0.00 | 0.00 | 81 | 1014.6 |
| 20260906012628 | 26 | 270 | 0.0 | 14.5 | 0.00 | 0.00 | 0.00 | 81 | 1014.2 |
| 20260906012122 | 26 | 239 | 0.0 | 3.2 | 0.00 | 0.00 | 0.00 | 81 | 1014.3 |
| 20260906011619 | 27 | 0 | 0.0 | 8.0 | 0.00 | 0.00 | 0.00 | 80 | 1014.3 |
| 20260906011118 | 27 | 117 | 4.8 | 4.8 | 0.00 | 0.00 | 0.00 | 80 | 1014.2 |
| 20260906010614 | 27 | 188 | 0.0 | 3.2 | 0.00 | 0.00 | 0.00 | 79 | 1014.2 |
| 20260906010110 | 27 | 161 | 0.0 | 3.2 | 0.00 | 0.00 | 0.00 | 79 | 1014.0 |
| 20260906005604 | 27 | 270 | 0.0 | 4.8 | 0.00 | 0.00 | 0.00 | 79 | 1013.6 |
| 20260906005103 | 27 | 0 | 0.0 | 3.2 | 0.00 | 0.00 | 0.00 | 79 | 1013.9 |
| 20260906004602 | 27 | 172 | 0.0 | 3.2 | 0.00 | 0.00 | 0.00 | 79 | 1013.8 |
| 20260906004057 | 27 | 352 | 0.0 | 4.8 | 0.00 | 0.00 | 0.00 | 79 | 1013.7 |
| 20260906003552 | 28 | 209 | 0.0 | 1.6 | 0.00 | 0.00 | 0.00 | 79 | 1013.8 |
| 20260906003049 | 28 | 325 | 0.0 | 3.2 | 0.00 | 0.00 | 0.00 | 78 | 1013.8 |
| 20260906002549 | 28 | 261 | 1.6 | 4.8 | 0.00 | 0.00 | 0.00 | 77 | 1013.8 |
| 20260906002044 | 28 | 291 | 0.0 | 3.2 | 0.00 | 0.00 | 0.00 | 77 | 1013.7 |
| 20260906001539 | 28 | 203 | 0.0 | 3.2 | 0.00 | 0.00 | 0.00 | 77 | 1013.9 |
| 20260906001033 | 29 | 294 | 0.0 | 1.6 | 0.00 | 0.00 | 0.00 | 77 | 1013.8 |
| 20260906000529 | 29 | 246 | 0.0 | 4.8 | 0.00 | 0.00 | 0.00 | 76 | 1013.7 |
| 20260906000024 | 30 | 243 | 0.0 | 1.6 | 0.00 | 0.00 | 0.00 | 75 | 1013.7 |
| 20260905235518 | 30 | 18 | 0.0 | 3.2 | 0.00 | 0.00 | 0.00 | 74 | 1013.7 |
| 20260905235013 | 31 | 270 | 0.0 | 1.6 | 0.00 | 0.00 | 0.00 | 73 | 1013.5 |
| 20260905234509 | 31 | 315 | 0.0 | 3.2 | 0.00 | 0.00 | 0.00 | 72 | 1013.4 |
| 20260905234009 | 31 | 348 | 1.6 | 4.8 | 0.00 | 0.00 | 0.00 | 72 | 1013.3 |
| 20260905233504 | 31 | 286 | 0.0 | 3.2 | 0.00 | 0.00 | 0.00 | 71 | 1013.3 |
| 20260905233003 | 32 | 325 | 0.0 | 1.6 | 0.00 | 0.00 | 0.00 | 70 | 1013.2 |
| 20260905232459 | 32 | 270 | 0.0 | 1.6 | 0.00 | 0.00 | 0.00 | 68 | 1013.2 |
| 20260905231954 | 33 | 106 | 0.0 | 1.6 | 0.00 | 0.00 | 0.00 | 66 | 1013.3 |
| 20260905231450 | 32 | 0 | 0.0 | 0.0 | 0.00 | 0.00 | 0.00 | 67 | 1012.9 |
| 20260905230946 | 32 | 352 | 0.0 | 3.2 | 0.00 | 0.00 | 0.00 | 67 | 1013.1 |
| 20260905230444 | 33 | 320 | 0.0 | 4.8 | 0.00 | 0.00 | 0.00 | 67 | 1013.2 |
| 20260905225943 | 34 | 337 | 0.0 | 3.2 | 0.00 | 0.00 | 0.00 | 64 | 1013.2 |
| 20260905225438 | 35 | 278 | 1.6 | 3.2 | 0.00 | 0.00 | 0.00 | 62 | 1013.1 |
| 20260905224933 | 35 | 262 | 1.6 | 3.2 | 0.00 | 0.00 | 0.00 | 63 | 1013.2 |
| 20260905224429 | 34 | 283 | 1.6 | 4.8 | 0.00 | 0.00 | 0.00 | 66 | 1013.3 |
| 20260905223922 | 34 | 246 | 0.0 | 4.8 | 0.00 | 0.00 | 0.00 | 64 | 1013.1 |
| 20260905223421 | 35 | 228 | 0.0 | 6.4 | 0.00 | 0.00 | 0.00 | 63 | 1013.1 |
| 20260905222921 | 35 | 289 | 3.2 | 3.2 | 0.00 | 0.00 | 0.00 | 63 | 1013.0 |
| 20260905222420 | 35 | 270 | 0.0 | 1.6 | 0.00 | 0.00 | 0.00 | 63 | 1013.3 |
| 20260905221916 | 35 | 270 | 3.2 | 3.2 | 0.00 | 0.00 | 0.00 | 64 | 1013.2 |
| 20260905221413 | 35 | 257 | 0.0 | 4.8 | 0.00 | 0.00 | 0.00 | 64 | 1013.2 |
| 20260905220909 | 34 | 282 | 0.0 | 6.4 | 0.00 | 0.00 | 0.00 | 67 | 1013.2 |
| 20260905220404 | 33 | 263 | 0.0 | 4.8 | 0.00 | 0.00 | 0.00 | 69 | 1013.2 |
| 20260905215903 | 33 | 279 | 0.0 | 3.2 | 0.00 | 0.00 | 0.00 | 68 | 1013.1 |
| 20260905215359 | 32 | 331 | 3.2 | 4.8 | 0.00 | 0.00 | 0.00 | 72 | 1013.3 |
| 20260905214855 | 32 | 279 | 1.6 | 1.6 | 0.00 | 0.00 | 0.00 | 74 | 1013.2 |
| 20260905214350 | 32 | 270 | 0.0 | 1.6 | 0.00 | 0.00 | 0.00 | 75 | 1013.2 |
| 20260905213845 | 32 | 289 | 3.2 | 3.2 | 0.00 | 0.00 | 0.00 | 73 | 1013.3 |
| 20260905213342 | 32 | 286 | 0.0 | 4.8 | 0.00 | 0.00 | 0.00 | 72 | 1013.1 |
| 20260905212841 | 33 | 258 | 0.0 | 4.8 | 0.00 | 0.00 | 0.00 | 70 | 1013.1 |
| 20260905212336 | 33 | 270 | 0.0 | 3.2 | 0.00 | 0.00 | 0.00 | 69 | 1013.3 |
| 20260905211836 | 33 | 352 | 0.0 | 3.2 | 0.00 | 0.00 | 0.00 | 69 | 1012.9 |
| 20260905211331 | 32 | 249 | 1.6 | 3.2 | 0.00 | 0.00 | 0.00 | 71 | 1013.3 |
| 20260905210827 | 32 | 337 | 0.0 | 1.6 | 0.00 | 0.00 | 0.00 | 72 | 1013.2 |
| 20260905210322 | 32 | 180 | 3.2 | 3.2 | 0.00 | 0.00 | 0.00 | 69 | 1013.2 |
| 20260905205821 | 33 | 346 | 1.6 | 3.2 | 0.00 | 0.00 | 0.00 | 68 | 1013.1 |
| 20260905205316 | 34 | 304 | 4.8 | 4.8 | 0.00 | 0.00 | 0.00 | 67 | 1013.2 |
| 20260905204815 | 34 | 279 | 0.0 | 8.0 | 0.00 | 0.00 | 0.00 | 64 | 1013.3 |
| 20260905204311 | 34 | 270 | 0.0 | 3.2 | 0.00 | 0.00 | 0.00 | 66 | 1013.4 |
| 20260905203810 | 33 | 341 | 3.2 | 4.8 | 0.00 | 0.00 | 0.00 | 68 | 1013.2 |
| 20260905203306 | 34 | 308 | 3.2 | 3.2 | 0.00 | 0.00 | 0.00 | 66 | 1013.3 |
| 20260905202801 | 34 | 348 | 4.8 | 4.8 | 0.00 | 0.00 | 0.00 | 64 | 1013.2 |
| 20260905202256 | 34 | 216 | 3.2 | 3.2 | 0.00 | 0.00 | 0.00 | 63 | 1013.3 |
| 20260905201751 | 33 | 282 | 4.8 | 9.7 | 0.00 | 0.00 | 0.00 | 65 | 1013.5 |
| 20260905201246 | 33 | 276 | 3.2 | 4.8 | 0.00 | 0.00 | 0.00 | 67 | 1013.4 |
| 20260905200741 | 33 | 282 | 3.2 | 3.2 | 0.00 | 0.00 | 0.00 | 72 | 1013.7 |
| 20260905200237 | 33 | 307 | 0.0 | 3.2 | 0.00 | 0.00 | 0.00 | 67 | 1013.5 |
| 20260905195735 | 33 | 315 | 3.2 | 6.4 | 0.00 | 0.00 | 0.00 | 67 | 1013.6 |
| 20260905195230 | 35 | 8 | 3.2 | 4.8 | 0.00 | 0.00 | 0.00 | 62 | 1013.5 |
| 20260905194726 | 34 | 323 | 0.0 | 3.2 | 0.00 | 0.00 | 0.00 | 67 | 1013.5 |
| 20260905194225 | 33 | 180 | 0.0 | 4.8 | 0.00 | 0.00 | 0.00 | 66 | 1013.5 |
| 20260905193719 | 33 | 352 | 0.0 | 1.6 | 0.00 | 0.00 | 0.00 | 68 | 1013.4 |
| 20260905193214 | 33 | 278 | 0.0 | 3.2 | 0.00 | 0.00 | 0.00 | 68 | 1013.5 |
| 20260905192710 | 33 | 251 | 0.0 | 4.8 | 0.00 | 0.00 | 0.00 | 66 | 1013.6 |
| 20260905192206 | 33 | 335 | 6.4 | 6.4 | 0.00 | 0.00 | 0.00 | 62 | 1013.8 |
| 20260905191706 | 34 | 337 | 0.0 | 4.8 | 0.00 | 0.00 | 0.00 | 66 | 1013.6 |
| 20260905191203 | 34 | 300 | 0.0 | 4.8 | 0.00 | 0.00 | 0.00 | 63 | 1013.8 |
| 20260905190703 | 34 | 236 | 3.2 | 4.8 | 0.00 | 0.00 | 0.00 | 62 | 1013.7 |
| 20260905190201 | 33 | 354 | 0.0 | 3.2 | 0.00 | 0.00 | 0.00 | 65 | 1013.6 |
| 20260905185701 | 33 | 270 | 0.0 | 3.2 | 0.00 | 0.00 | 0.00 | 66 | 1013.7 |
| 20260905185155 | 33 | 270 | 3.2 | 3.2 | 0.00 | 0.00 | 0.00 | 66 | 1013.8 |
| 20260905184655 | 34 | 248 | 0.0 | 3.2 | 0.00 | 0.00 | 0.00 | 62 | 1013.8 |
| 20260905184154 | 34 | 270 | 0.0 | 3.2 | 0.00 | 0.00 | 0.00 | 63 | 1013.9 |
| 20260905183648 | 34 | 209 | 0.0 | 3.2 | 0.00 | 0.00 | 0.00 | 61 | 1013.9 |
| 20260905183143 | 35 | 287 | 3.2 | 4.8 | 0.00 | 0.00 | 0.00 | 61 | 1014.0 |
| 20260905182643 | 35 | 279 | 0.0 | 4.8 | 0.00 | 0.00 | 0.00 | 61 | 1014.1 |
| 20260905182143 | 35 | 270 | 0.0 | 4.8 | 0.00 | 0.00 | 0.00 | 62 | 1013.9 |
| 20260905181638 | 35 | 243 | 3.2 | 8.0 | 0.00 | 0.00 | 0.00 | 63 | 1014.1 |
| 20260905181137 | 34 | 311 | 0.0 | 8.0 | 0.00 | 0.00 | 0.00 | 66 | 1013.8 |
| 20260905180632 | 34 | 255 | 4.8 | 6.4 | 0.00 | 0.00 | 0.00 | 63 | 1014.1 |
| 20260905180127 | 33 | 265 | 3.2 | 9.7 | 0.00 | 0.00 | 0.00 | 62 | 1014.2 |
| 20260905175626 | 34 | 90 | 1.6 | 4.8 | 0.00 | 0.00 | 0.00 | 65 | 1014.2 |
| 20260905175122 | 33 | 294 | 0.0 | 6.4 | 0.00 | 0.00 | 0.00 | 62 | 1014.1 |
| 20260905174617 | 33 | 259 | 6.4 | 6.4 | 0.00 | 0.00 | 0.00 | 63 | 1014.4 |
| 20260905174113 | 33 | 285 | 4.8 | 6.4 | 0.00 | 0.00 | 0.00 | 65 | 1014.3 |
| 20260905173609 | 33 | 159 | 3.2 | 6.4 | 0.00 | 0.00 | 0.00 | 63 | 1014.5 |
| 20260905173104 | 33 | 282 | 0.0 | 6.4 | 0.00 | 0.00 | 0.00 | 65 | 1014.4 |
| 20260905172603 | 33 | 246 | 4.8 | 8.0 | 0.00 | 0.00 | 0.00 | 64 | 1014.1 |
| 20260905172058 | 33 | 308 | 3.2 | 4.8 | 0.00 | 0.00 | 0.00 | 65 | 1014.2 |
| 20260905171554 | 34 | 277 | 4.8 | 4.8 | 0.00 | 0.00 | 0.00 | 62 | 1014.2 |
| 20260905171050 | 33 | 287 | 3.2 | 8.0 | 0.00 | 0.00 | 0.00 | 62 | 1014.5 |
| 20260905170547 | 33 | 273 | 6.4 | 8.0 | 0.00 | 0.00 | 0.00 | 62 | 1014.5 |
| 20260905170041 | 33 | 159 | 3.2 | 6.4 | 0.00 | 0.00 | 0.00 | 61 | 1014.5 |
| 20260905165536 | 33 | 255 | 1.6 | 6.4 | 0.00 | 0.00 | 0.00 | 64 | 1014.5 |
| 20260905165032 | 33 | 206 | 4.8 | 4.8 | 0.00 | 0.00 | 0.00 | 63 | 1014.5 |
| 20260905164526 | 33 | 319 | 4.8 | 4.8 | 0.00 | 0.00 | 0.00 | 65 | 1014.7 |
| 20260905164021 | 33 | 307 | 3.2 | 8.0 | 0.00 | 0.00 | 0.00 | 61 | 1014.6 |
| 20260905163517 | 34 | 0 | 3.2 | 3.2 | 0.00 | 0.00 | 0.00 | 62 | 1014.4 |
| 20260905163013 | 33 | 276 | 3.2 | 6.4 | 0.00 | 0.00 | 0.00 | 61 | 1014.6 |
| 20260905162508 | 33 | 215 | 1.6 | 4.8 | 0.00 | 0.00 | 0.00 | 62 | 1014.7 |
| 20260905162003 | 33 | 270 | 0.0 | 4.8 | 0.00 | 0.00 | 0.00 | 62 | 1014.8 |
| 20260905161503 | 33 | 294 | 1.6 | 4.8 | 0.00 | 0.00 | 0.00 | 63 | 1014.5 |
| 20260905161000 | 32 | 285 | 4.8 | 8.0 | 0.00 | 0.00 | 0.00 | 65 | 1014.2 |
| 20260905160454 | 32 | 264 | 4.8 | 8.0 | 0.00 | 0.00 | 0.00 | 66 | 1014.5 |
| 20260905155954 | 32 | 328 | 3.2 | 4.8 | 0.00 | 0.00 | 0.00 | 65 | 1014.4 |
| 20260905155449 | 32 | 246 | 3.2 | 4.8 | 0.00 | 0.00 | 0.00 | 67 | 1014.4 |
| 20260905154947 | 32 | 236 | 3.2 | 4.8 | 0.00 | 0.00 | 0.00 | 67 | 1014.5 |
| 20260905154442 | 32 | 192 | 4.8 | 6.4 | 0.00 | 0.00 | 0.00 | 67 | 1014.4 |
| 20260905153938 | 32 | 326 | 3.2 | 4.8 | 0.00 | 0.00 | 0.00 | 66 | 1014.4 |
| 20260905153434 | 32 | 246 | 1.6 | 4.8 | 0.00 | 0.00 | 0.00 | 67 | 1014.1 |
| 20260905152933 | 32 | 270 | 0.0 | 6.4 | 0.00 | 0.00 | 0.00 | 67 | 1014.3 |
| 20260905152433 | 32 | 187 | 1.6 | 6.4 | 0.00 | 0.00 | 0.00 | 70 | 1014.6 |
| 20260905151928 | 32 | 270 | 3.2 | 4.8 | 0.00 | 0.00 | 0.00 | 68 | 1014.3 |
| 20260905151424 | 32 | 281 | 4.8 | 4.8 | 0.00 | 0.00 | 0.00 | 66 | 1014.4 |
| 20260905150919 | 31 | 246 | 0.0 | 3.2 | 0.00 | 0.00 | 0.00 | 69 | 1014.2 |
| 20260905150419 | 31 | 261 | 0.0 | 11.3 | 0.00 | 0.00 | 0.00 | 70 | 1014.1 |
| 20260905145915 | 31 | 258 | 3.2 | 4.8 | 0.00 | 0.00 | 0.00 | 72 | 1014.3 |
| 20260905145410 | 31 | 105 | 0.0 | 4.8 | 0.00 | 0.00 | 0.00 | 70 | 1014.1 |
| 20260905144909 | 30 | 348 | 0.0 | 1.6 | 0.00 | 0.00 | 0.00 | 74 | 1014.5 |
| 20260905144405 | 30 | 337 | 0.0 | 3.2 | 0.00 | 0.00 | 0.00 | 76 | 1014.3 |
| 20260905143904 | 30 | 279 | 0.0 | 4.8 | 0.00 | 0.00 | 0.00 | 76 | 1014.1 |
| 20260905143358 | 30 | 246 | 3.2 | 4.8 | 0.00 | 0.00 | 0.00 | 78 | 1014.0 |
| 20260905142857 | 29 | 234 | 0.0 | 3.2 | 0.00 | 0.00 | 0.00 | 78 | 1013.9 |
| 20260905142356 | 28 | 328 | 0.0 | 3.2 | 0.00 | 0.00 | 0.00 | 79 | 1013.9 |
| 20260905141852 | 28 | 261 | 0.0 | 3.2 | 0.00 | 0.00 | 0.00 | 82 | 1013.9 |
| 20260905141347 | 28 | 277 | 0.0 | 3.2 | 0.00 | 0.00 | 0.00 | 82 | 1013.9 |
| 20260905140843 | 27 | 326 | 0.0 | 3.2 | 0.00 | 0.00 | 0.00 | 82 | 1013.8 |
| 20260905140343 | 27 | 345 | 0.0 | 1.6 | 0.00 | 0.00 | 0.00 | 83 | 1013.7 |
| 20260905135841 | 27 | 90 | 0.0 | 0.0 | 0.00 | 0.00 | 0.00 | 84 | 1013.8 |
| 20260905135332 | 27 | 90 | 0.0 | 3.2 | 0.00 | 0.00 | 0.00 | 84 | 1014.0 |
| 20260905134827 | 26 | 180 | 0.0 | 0.0 | 0.00 | 0.00 | 0.00 | 86 | 1013.9 |
| 20260905134320 | 26 | 180 | 0.0 | 0.0 | 0.00 | 0.00 | 0.00 | 87 | 1014.1 |
| 20260905133815 | 26 | 328 | 0.0 | 0.0 | 0.00 | 0.00 | 0.00 | 88 | 1014.0 |
| 20260905133310 | 26 | 328 | 0.0 | 3.2 | 0.00 | 0.00 | 0.00 | 88 | 1014.1 |
| 20260905132809 | 26 | 261 | 0.0 | 3.2 | 0.00 | 0.00 | 0.00 | 89 | 1014.0 |
| 20260905132306 | 25 | 294 | 0.0 | 3.2 | 0.00 | 0.00 | 0.00 | 90 | 1014.1 |
| 20260905131759 | 25 | 283 | 0.0 | 1.6 | 0.00 | 0.00 | 0.00 | 91 | 1014.0 |